DW1188 Weather Reports


Display with metric or nautical units.
time (UTC)temp
F
wind
direction
speed
MPH
gust
MPH
rain 1hr
in
rain 24hr
in
rain mn
in
humidity
%
barometer
mb
20260507140028 53 165 1.0 9.0 0.00 0.00 0.00 72 1015.4
20260507134758 53 165 0.0 1.0 0.00 0.00 0.00 73 1015.3
20260507130836 51 144 0.0 8.0 0.00 0.00 0.00 73 1014.8
20260507125617 51 145 0.0 0.0 0.00 0.00 0.00 73 1014.8
20260507123036 51 138 0.0 0.0 0.00 0.00 0.00 72 1014.5
20260507121811 51 140 0.0 0.0 0.00 0.00 0.00 71 1014.3
20260507115241 52 146 0.0 0.0 0.00 0.00 0.00 70 1014.0
20260507114031 52 139 0.0 0.0 0.00 0.00 0.00 69 1013.9
20260507112756 52 139 0.0 0.0 0.00 0.00 0.00 68 1013.8
20260507111518 53 139 0.0 0.0 0.00 0.00 0.00 65 1013.7
20260507110307 53 139 0.0 0.0 0.00 0.00 0.00 64 1013.6
20260507105040 54 137 0.0 0.0 0.00 0.00 0.00 63 1013.3
20260507102514 55 152 0.0 0.0 0.00 0.00 0.00 60 1013.1
20260507101310 55 154 0.0 0.0 0.00 0.00 0.00 59 1013.0
20260507100137 55 150 0.0 0.0 0.00 0.00 0.00 59 1012.9
20260507094900 55 153 0.0 0.0 0.00 0.00 0.00 57 1012.8
20260507093647 56 154 0.0 0.0 0.00 0.00 0.00 56 1012.6
20260507092411 56 152 0.0 0.0 0.00 0.00 0.00 56 1012.6
20260507091221 57 160 0.0 0.0 0.00 0.00 0.00 55 1012.5
20260507090007 57 161 0.0 0.0 0.00 0.00 0.00 55 1012.2
20260507084829 57 160 0.0 0.0 0.00 0.00 0.00 55 1012.2
20260507083606 58 159 0.0 0.0 0.00 0.00 0.00 55 1012.0
20260507082415 58 174 0.0 0.0 0.00 0.00 0.00 55 1011.9
20260507081159 59 161 0.0 0.0 0.00 0.00 0.00 55 1011.7
20260507075919 59 144 0.0 0.0 0.00 0.00 0.00 55 1011.6
20260507074647 60 153 0.0 0.0 0.00 0.00 0.00 55 1011.5
20260507073452 60 160 0.0 0.0 0.00 0.00 0.00 54 1011.3
20260507070841 61 143 0.0 0.0 0.00 0.00 0.00 53 1011.1
20260507065647 62 161 0.0 0.0 0.00 0.00 0.00 52 1010.9
20260507064508 62 148 0.0 0.0 0.00 0.00 0.00 53 1011.0
20260507063233 62 140 0.0 0.0 0.00 0.00 0.00 54 1010.8
20260507062032 63 136 0.0 0.0 0.00 0.00 0.00 55 1010.7
20260507060838 63 133 0.0 0.0 0.00 0.00 0.00 55 1010.7
20260507054311 64 142 0.0 0.0 0.00 0.00 0.00 56 1011.0
20260507053105 65 84 0.0 0.0 0.00 0.00 0.00 54 1010.8
20260507051932 66 157 0.0 0.0 0.00 0.00 0.00 53 1010.7
20260507045346 66 153 0.0 0.0 0.00 0.00 0.00 52 1010.7
20260507044204 67 227 0.0 0.0 0.00 0.00 0.00 53 1010.8
20260507043014 67 146 0.0 0.0 0.00 0.00 0.00 52 1010.7
20260507035120 68 119 0.0 1.0 0.00 0.00 0.00 51 1010.6
20260507033925 69 141 0.0 3.0 0.00 0.00 0.00 51 1010.5
20260507032738 69 146 1.0 12.0 0.00 0.00 0.00 51 1010.3
20260507031553 70 120 1.0 12.0 0.00 0.00 0.00 50 1010.5
20260507030332 70 162 0.0 7.0 0.00 0.00 0.00 49 1010.6
20260507025132 71 129 1.0 8.0 0.00 0.00 0.00 48 1010.6
20260507023952 71 192 2.0 4.0 0.00 0.00 0.00 48 1010.6
20260507022744 71 180 1.0 2.0 0.00 0.00 0.00 47 1010.7
20260507021636 71 160 0.0 11.0 0.00 0.00 0.00 47 1010.7
20260507015207 72 173 2.0 10.0 0.00 0.00 0.00 45 1010.9
20260507012642 73 212 1.0 0.0 0.00 0.00 0.00 41 1011.2
20260507003510 73 219 8.0 16.0 0.00 0.00 0.00 40 1011.4
20260507002239 74 222 7.0 17.0 0.00 0.00 0.00 39 1011.4
20260507001108 74 238 7.0 17.0 0.00 0.00 0.00 39 1011.4
20260506235937 74 193 5.0 15.0 0.00 0.00 0.00 39 1011.4
20260506234744 74 201 5.0 14.0 0.00 0.00 0.00 39 1011.4
20260506232252 74 253 6.0 18.0 0.00 0.00 0.00 39 1011.6
20260506231048 74 244 7.0 15.0 0.00 0.00 0.00 43 1011.7
20260506225836 74 220 6.0 17.0 0.00 0.00 0.00 43 1011.8
20260506224641 74 207 6.0 17.0 0.00 0.00 0.00 43 1012.0
20260506223450 74 200 5.0 15.0 0.00 0.00 0.00 43 1012.1
20260506222309 75 208 6.0 16.0 0.00 0.00 0.00 43 1012.2
20260506221107 75 222 5.0 16.0 0.00 0.00 0.00 44 1012.3
20260506215856 75 260 3.0 15.0 0.00 0.00 0.00 42 1012.4
20260506214638 74 241 5.0 19.0 0.00 0.00 0.00 43 1012.4
20260506212054 74 233 7.0 16.0 0.00 0.00 0.00 41 1012.7
20260506210820 74 247 3.0 16.0 0.00 0.00 0.00 43 1012.9
20260506204254 74 88 0.0 0.0 0.00 0.00 0.00 42 1013.2
20260506201833 72 123 0.0 0.0 0.00 0.00 0.00 42 1013.5
20260506200631 72 143 0.0 0.0 0.00 0.00 0.00 42 1013.6
20260506195436 71 155 0.0 0.0 0.00 0.00 0.00 41 1013.6
20260506194207 70 178 0.0 0.0 0.00 0.00 0.00 44 1013.9
20260506193030 69 240 0.0 0.0 0.00 0.00 0.00 43 1014.0
20260506191855 69 265 0.0 0.0 0.00 0.00 0.00 44 1014.2
20260506190648 68 275 0.0 0.0 0.00 0.00 0.00 44 1014.7
20260506182831 67 159 0.0 0.0 0.00 0.00 0.00 45 1014.5
20260506181635 66 162 0.0 0.0 0.00 0.00 0.00 45 1014.5
20260506180429 66 130 0.0 1.0 0.00 0.00 0.00 43 1014.6
20260506175216 65 82 0.0 4.0 0.00 0.00 0.00 43 1014.9
20260506174038 65 115 0.0 5.0 0.00 0.00 0.00 42 1014.8
20260506172816 64 155 0.0 0.0 0.00 0.00 0.00 44 1015.0
20260506171544 63 163 0.0 0.0 0.00 0.00 0.00 41 1015.3
20260506170350 63 88 0.0 0.0 0.00 0.00 0.00 42 1015.3
20260506165123 63 138 0.0 0.0 0.00 0.00 0.00 40 1015.5
20260506163928 61 92 0.0 0.0 0.00 0.00 0.00 40 1015.6
20260506161418 60 150 0.0 0.0 0.00 0.00 0.00 43 1015.5
20260506160207 59 92 0.0 0.0 0.00 0.00 0.00 45 1015.7
20260506155038 58 55 0.0 0.0 0.00 0.00 0.00 46 1015.7
20260506153832 57 67 0.0 0.0 0.00 0.00 0.00 49 1015.9
20260506152558 56 90 0.0 0.0 0.00 0.00 0.00 50 1015.9
20260506151359 55 80 0.0 1.0 0.00 0.00 0.00 49 1015.9
20260506150147 55 85 0.0 0.0 0.00 0.00 0.00 53 1015.9
20260506142209 53 72 0.0 0.0 0.00 0.00 0.00 59 1015.9
20260506141002 52 65 0.0 0.0 0.00 0.00 0.00 61 1016.0